Time,TemperatureF,DewpointF,PressureIn,WindDirection,WindDirectionDegrees,WindSpeedMPH,WindSpeedGustMPH,Humidity,HourlyPrecipIn,Conditions,Clouds,dailyrainin,SoftwareType,DateUTC
2013-04-11 10:02:00,47.0,37.0,-100.00,SSW,203,2.0,-999.0,69,-99.99,,,0.00,,2013-04-11 17:02:00,
2013-04-11 10:12:00,47.0,37.0,-100.00,SSW,203,2.0,-999.0,69,-99.99,,,0.00,,2013-04-11 17:12:00,
2013-04-11 10:22:00,47.0,37.0,-100.00,SSW,203,2.0,-999.0,69,-99.99,,,0.00,,2013-04-11 17:22:00,
2013-04-11 10:32:00,47.0,37.0,-100.00,SSW,203,2.0,-999.0,69,-99.99,,,0.00,,2013-04-11 17:32:00,
2013-04-11 11:02:00,56.0,37.0,-100.00,NW,323,3.0,9.0,49,0.00,,,0.00,,2013-04-11 18:02:00,
2013-04-11 12:03:00,51.0,35.0,-100.00,NNW,345,4.0,9.0,54,-99.99,,,0.00,,2013-04-11 19:03:00,
2013-04-11 12:13:00,51.0,35.0,-100.00,NNW,345,4.0,9.0,54,-99.99,,,0.00,,2013-04-11 19:13:00,
2013-04-11 12:22:00,51.0,35.0,-100.00,NNW,345,4.0,9.0,54,-99.99,,,0.00,,2013-04-11 19:22:00,
2013-04-11 12:32:00,51.0,35.0,-100.00,NNW,345,4.0,9.0,54,-99.99,,,0.00,,2013-04-11 19:32:00,
2013-04-11 13:02:00,56.0,37.0,-100.00,SSE,152,5.0,11.0,49,0.00,,,0.00,,2013-04-11 20:02:00,
2013-04-11 13:13:00,56.0,37.0,-100.00,SSE,152,5.0,11.0,49,0.00,,,0.00,,2013-04-11 20:13:00,
2013-04-11 13:21:00,56.0,37.0,-100.00,SSE,152,5.0,11.0,49,0.00,,,0.00,,2013-04-11 20:21:00,
2013-04-11 13:32:00,56.0,37.0,-100.00,SSE,152,5.0,11.0,49,0.00,,,0.00,,2013-04-11 20:32:00,
2013-04-11 14:02:00,58.0,37.0,-100.00,NW,324,3.0,12.0,45,0.00,,,0.00,,2013-04-11 21:02:00,
2013-04-11 14:12:00,58.0,37.0,-100.00,NW,324,3.0,12.0,45,0.00,,,0.00,,2013-04-11 21:12:00,
2013-04-11 14:22:00,58.0,37.0,-100.00,NW,324,3.0,12.0,45,0.00,,,0.00,,2013-04-11 21:22:00,
2013-04-11 14:32:00,58.0,37.0,-100.00,NW,324,3.0,12.0,45,0.00,,,0.00,,2013-04-11 21:32:00,
2013-04-11 15:03:00,58.0,34.0,-100.00,NNW,339,5.0,13.0,41,0.00,,,0.00,,2013-04-11 22:03:00,
2013-04-11 15:13:00,58.0,34.0,-100.00,NNW,339,5.0,13.0,41,0.00,,,0.00,,2013-04-11 22:13:00,
2013-04-11 15:22:00,58.0,34.0,-100.00,NNW,339,5.0,13.0,41,0.00,,,0.00,,2013-04-11 22:22:00,
2013-04-11 15:32:00,58.0,34.0,-100.00,NNW,339,5.0,13.0,41,0.00,,,0.00,,2013-04-11 22:32:00,
2013-04-11 16:03:00,57.0,32.0,-100.00,NNW,339,4.0,13.0,38,0.00,,,0.00,,2013-04-11 23:03:00,
2013-04-11 16:12:00,57.0,32.0,-100.00,NNW,339,4.0,13.0,38,0.00,,,0.00,,2013-04-11 23:12:00,
2013-04-11 16:22:00,57.0,32.0,-100.00,NNW,339,4.0,13.0,38,0.00,,,0.00,,2013-04-11 23:22:00,
2013-04-11 16:32:00,57.0,32.0,-100.00,NNW,339,4.0,13.0,38,0.00,,,0.00,,2013-04-11 23:32:00,
2013-04-11 17:02:00,55.0,20.0,-100.00,NNW,347,4.0,11.0,25,0.00,,,0.00,,2013-04-12 00:02:00,
2013-04-11 18:02:00,57.0,15.0,-100.00,North,8,2.0,11.0,19,0.00,,,0.00,,2013-04-12 01:02:00,